Regional Weather Roundup
Issued by NWS Boston, MA

Current Version | Previous Version | Graphics & Text | Print | Product List | Glossary Off
Versions: 1 2 3 4 5 6 7 8 9 10 11 12 13 14 15 16 17 18 19 20 21 22 23 24 25 26 27 28 29 30 31 32 33 34 35 36 37 38 39 40 41 42 43 44 45 46 47 48 49 50
000 ASUS41 KBOX 220110 RWRBOX REGIONAL WEATHER ROUNDUP NATIONAL WEATHER SERVICE BOSTON/NORTON MA 900 PM EDT TUE MAY 21 2019 NOTE: "FAIR" INDICATES FEW OR NO CLOUDS BELOW 12,000 FEET WITH NO SIGNIFICANT WEATHER AND/OR OBSTRUCTIONS TO VISIBILITY. MAZALL-220200- EASTERN MASSACHUSETTS CITY SKY/WX TMP DP RH WIND PRES REMARKS BOSTON FAIR 63 32 31 NW17G23 29.93R BEVERLY MOCLDY 59 34 39 NW15G26 29.91R LAWRENCE MOCLDY 59 34 39 NW14G22 29.95R BEDFORD FAIR 60 32 34 NW14G23 29.93R BLUE HILL N/A 57 32 38 NW14G23 29.93R NORWOOD FAIR 61 33 35 NW12G17 29.94R MARSHFIELD FAIR 63 34 34 NW13G22 29.91R PLYMOUTH FAIR 60 34 37 NW7 29.92R TAUNTON FAIR 62 33 33 NW7 29.93R NEW BEDFORD FAIR 60 36 40 VRB3 29.93R $$ MAZALL-220200- CAPE COD AND THE ISLANDS CITY SKY/WX TMP DP RH WIND PRES REMARKS FALMOUTH FAIR 59 34 38 NW13 29.92R HYANNIS FAIR 59 40 49 NW10G16 29.90R CHATHAM FAIR 59 39 47 VRB7 29.90R PROVINCETOWN FAIR 57 42 57 NW17G26 29.91R NANTUCKET FAIR 58 43 57 N13 29.91R MARTHAS VNYRD FAIR 61 35 37 NW14 29.92R $$ MAZALL-220200- CENTRAL AND WESTERN MASSACHUSETTS CITY SKY/WX TMP DP RH WIND PRES REMARKS WORCESTER FAIR 56 33 42 NW13 29.97R FITCHBURG FAIR 59 32 36 NW12G24 29.97R ORANGE FAIR 59 32 36 N10G18 29.99R SPRINGFIELD NOT AVBL WESTFIELD FAIR 60 31 33 NW9 29.98R NORTH ADAMS FAIR 57 33 40 W7G18 30.02R PITTSFIELD FAIR 56 31 38 NW8 30.00R $$ RIZALL-220200- RHODE ISLAND CITY SKY/WX TMP DP RH WIND PRES REMARKS PROVIDENCE FAIR 62 32 32 NW12G21 29.95R NEWPORT FAIR 61 35 37 NW10G21 29.94R BLOCK ISLAND FAIR 58 44 60 NW9 29.96R SMITHFIELD FAIR 58 34 40 NW12G18 29.96R WESTERLY FAIR 62 40 44 NW3 29.97R $$ CTZALL-220200- CONNECTICUT CITY SKY/WX TMP DP RH WIND PRES REMARKS BRADLEY INTL FAIR 62 32 32 NW13 29.98R HARTFORD FAIR 62 34 35 NW8 29.99R BRIDGEPORT FAIR 64 34 32 NW16 30.01R DANBURY FAIR 59 35 40 W3 30.05R GROTON FAIR 63 39 41 NW7 29.97R NEW HAVEN FAIR 64 40 41 NW8 30.00R CHESTER FAIR 59 37 44 W6 29.99R MERIDEN FAIR 59 40 49 NW6 30.00R WILLIMANTIC FAIR 61 32 33 NW12 29.98R OXFORD FAIR 58 37 45 NW8 30.03R $$ MEZ002-015-021-024-NHZ003-005-008-011-012-014-VTZ005-008-220200- NORTHERN NEW ENGLAND CITY SKY/WX TMP DP RH WIND PRES REMARKS PORTLAND ME MOCLDY 55 36 48 NW12G22 29.87R BANGOR ME MOCLDY 52 38 58 NW17G31 29.77R CONCORD NH FAIR 56 34 43 NW15 29.93R MANCHESTER NH FAIR 60 33 36 NW10 29.92R NASHUA NH FAIR 60 33 36 NW16G26 29.94R PORTSMOUTH NH NOT AVBL JAFFREY NH MOCLDY 57 31 37 NW12G23 29.97R KEENE NH MOCLDY 58 33 39 NW10 29.96R BURLINGTON VT MOCLDY 57 36 45 N13 30.03R MT. WASHINGTON SNOWSHWR 27 27 100 NW71G96 N/A VSB 1/16WCI 4 $$ NYZ052-076-220200- EASTERN NEW YORK CITY SKY/WX TMP DP RH WIND PRES REMARKS ALBANY FAIR 59 34 39 NW6 30.04R NEW YORK CITY MOCLDY 65 35 33 N18 30.03R $$ ANZALL-220200- MARINE OBSERVATIONS STATION/POSITION TIME TEMP WIND PRES VSBY WAVE AIR SEA DIR/SP/G HT/PER (UTC) (F) (DEG/KT/KT) (MB) (MI) (FT/S) BOSTON BUOY 0050 58 52 300/ 19/ 23 1012.1R 3/ 4 BUZZARDS BAY NOT AVBL NANTUCKET SOUND 0050 310/ 14/ 17 1012.9R 2/ 3 MASS BAY-STELLWA 0004 56 48 320/ 17/ 21 1010.4R 1 7/8 3/ 3 ISLE OF SHOALS 0000 56 320/ 24/ 25 1010.8R S OF BLOCK IS 0030 53 N/A 4/ 7 $$ ......................KEY......................... SKY/WX - SKY CONDITION/PRESENT WEATHER TMP - TEMPERATURE IN FAHRENHEIT DWPT - DEWPOINT IN FAHRENHEIT RH - RELATIVE HUMIDITY IN PERCENT WIND - DIRECTION AND SPEED IN MPH PRES - MEAN SEA LEVEL PRESSURE IN INCHES OF HG WCI - WIND CHILL INDEX VSB - VISIBILITY IN MILES HX - HEAT INDEX TC - TEMPERATURE IN CELSIUS VRB - VARIABLE WIND DIRECTION N/A - NOT AVAILABLE

USA.gov is the U.S. government's official web portal to all federal, state and local government web resources and services.